DW9278 Weather Reports


time (UTC)temp
F
wind
direction
speed
knots
gust
knots
rain 1hr
in
rain 24hr
in
rain mn
in
humidity
%
barometer
mb
20260506222508 76 358 2.6 7.0 0.00 0.00 0.00 56 1015.9
20260506222023 75 277 3.5 7.8 0.00 0.00 0.00 56 1015.9
20260506221007 75 327 2.6 10.4 0.00 0.00 0.00 57 1016.0
20260506220507 74 340 2.6 10.4 0.00 0.00 0.00 57 1016.1
20260506220012 74 336 2.6 7.8 0.00 0.00 0.00 57 1016.2
20260506215510 75 333 2.6 7.8 0.00 0.00 0.00 56 1016.3
20260506215008 75 12 1.7 5.2 0.00 0.00 0.00 56 1016.3
20260506214507 75 276 2.6 5.2 0.00 0.00 0.00 55 1016.4
20260506214007 75 257 2.6 9.6 0.00 0.00 0.00 56 1016.4
20260506213506 75 285 1.7 9.6 0.00 0.00 0.00 56 1016.5
20260506213009 74 235 2.6 5.2 0.00 0.00 0.00 57 1016.5
20260506212510 73 314 1.7 7.8 0.00 0.00 0.00 57 1016.5
20260506212010 74 39 1.7 6.1 0.00 0.00 0.00 58 1016.6
20260506211508 74 289 2.6 6.1 0.00 0.00 0.00 56 1016.7
20260506211007 74 288 2.6 7.0 0.00 0.00 0.00 56 1016.7
20260506210505 73 355 3.5 7.8 0.00 0.00 0.00 58 1016.7
20260506210011 73 29 2.6 7.8 0.00 0.00 0.00 59 1016.8
20260506205510 73 56 3.5 7.0 0.00 0.00 0.00 58 1016.7
20260506205008 73 304 2.6 7.8 0.00 0.00 0.00 58 1016.8
20260506204510 73 353 2.6 7.8 0.00 0.00 0.00 58 1016.9
20260506204010 72 295 3.5 9.6 0.00 0.00 0.00 59 1016.9
20260506203508 72 352 3.5 9.6 0.00 0.00 0.00 58 1017.0
20260506203011 73 22 2.6 7.0 0.00 0.00 0.00 58 1017.0
20260506202510 73 48 1.7 7.0 0.00 0.00 0.00 56 1017.1
20260506202012 74 255 0.9 3.5 0.00 0.00 0.00 54 1017.2
20260506201507 73 1 1.7 5.2 0.00 0.00 0.00 55 1017.3
20260506201009 71 350 2.6 7.0 0.00 0.00 0.00 55 1017.4
20260506200507 71 297 3.5 9.6 0.00 0.00 0.00 55 1017.5
20260506200010 71 328 2.6 8.7 0.00 0.00 0.00 55 1017.5
20260506195510 71 70 2.6 7.8 0.00 0.00 0.00 57 1017.5
20260506194507 71 70 3.5 7.8 0.00 0.00 0.00 56 1017.7
20260506194009 71 20 2.6 6.1 0.00 0.00 0.00 57 1017.8
20260506193512 71 72 2.6 4.3 0.00 0.00 0.00 55 1017.7
20260506193011 71 331 2.6 6.1 0.00 0.00 0.00 58 1017.7
20260506192006 71 52 2.6 6.1 0.00 0.00 0.00 58 1017.8
20260506190505 72 19 1.7 5.2 0.00 0.00 0.00 59 1018.0
20260506190023 71 247 0.9 3.5 0.00 0.00 0.00 59 1017.9
20260506185507 71 301 1.7 3.5 0.00 0.00 0.00 61 1018.0
20260506185011 70 1 1.7 4.3 0.00 0.00 0.00 61 1018.0
20260506184511 70 291 1.7 4.3 0.00 0.00 0.00 62 1018.1
20260506184008 69 4 1.7 5.2 0.00 0.00 0.00 62 1018.2
20260506183505 69 349 2.6 8.7 0.00 0.00 0.00 62 1018.2
20260506183007 70 288 1.7 8.7 0.00 0.00 0.00 61 1018.2
20260506182507 69 1 1.7 5.2 0.00 0.00 0.00 63 1018.2
20260506182011 70 15 1.7 6.1 0.00 0.00 0.00 62 1018.2
20260506181509 69 341 2.6 6.1 0.00 0.00 0.00 64 1018.3
20260506181010 68 46 2.6 5.2 0.00 0.00 0.00 64 1018.2
20260506180510 68 6 2.6 4.3 0.00 0.00 0.00 64 1018.2
20260506180008 68 285 1.7 5.2 0.00 0.00 0.00 63 1018.3
20260506175011 68 36 1.7 4.3 0.00 0.00 0.00 64 1018.3
20260506174010 67 116 1.7 4.3 0.00 0.00 0.00 65 1018.2
20260506173509 67 40 1.7 4.3 0.00 0.00 0.00 64 1018.2
20260506173010 67 348 0.9 2.6 0.00 0.00 0.00 64 1018.2
20260506172009 67 347 1.7 4.3 0.00 0.00 0.00 66 1018.3
20260506171506 66 304 1.7 3.5 0.00 0.00 0.00 67 1018.4
20260506171011 65 20 0.9 3.5 0.00 0.00 0.00 68 1018.4
20260506170510 65 349 0.9 3.5 0.00 0.00 0.00 68 1018.3
20260506170010 65 343 0.9 1.7 0.00 0.00 0.00 68 1018.4
20260506165510 64 238 0.9 3.5 0.00 0.00 0.00 70 1018.4
20260506165008 64 50 1.7 3.5 0.00 0.00 0.00 69 1018.4
20260506164508 64 354 1.7 3.5 0.00 0.00 0.00 69 1018.4
20260506163505 63 6 0.9 2.6 0.00 0.00 0.00 70 1018.4
20260506163010 63 65 0.9 1.7 0.00 0.00 0.00 71 1018.4
20260506162509 63 33 0.9 2.6 0.00 0.00 0.00 71 1018.4
20260506162009 63 321 0.9 2.6 0.00 0.00 0.00 71 1018.4
20260506161511 62 49 0.9 2.6 0.00 0.00 0.00 72 1018.4
20260506161010 62 322 0.0 1.7 0.00 0.00 0.00 72 1018.4
20260506160509 62 326 0.0 0.9 0.00 0.00 0.00 72 1018.4
20260506160017 62 302 0.0 1.7 0.00 0.00 0.00 74 1018.5
20260506155509 61 330 0.9 1.7 0.00 0.00 0.00 73 1018.5
20260506155006 61 302 0.9 1.7 0.00 0.00 0.00 74 1018.5
20260506153509 60 252 0.9 2.6 0.00 0.00 0.00 75 1018.5
20260506153014 60 256 0.0 1.7 0.00 0.00 0.00 76 1018.5
20260506152510 60 282 0.0 0.9 0.00 0.00 0.00 76 1018.5
20260506152008 60 282 0.0 0.9 0.00 0.00 0.00 75 1018.5
20260506151509 59 282 0.0 0.9 0.00 0.00 0.00 77 1018.5
20260506151012 59 282 0.0 0.9 0.00 0.00 0.00 77 1018.5
20260506150505 59 282 0.0 0.9 0.00 0.00 0.00 77 1018.5
20260506150022 59 282 0.0 0.0 0.00 0.00 0.00 78 1018.5
20260506145509 59 282 0.0 0.0 0.00 0.00 0.00 78 1018.5
20260506144507 58 282 0.0 0.0 0.00 0.00 0.00 78 1018.4
20260506143509 58 282 0.0 0.0 0.00 0.00 0.00 78 1018.4
20260506143010 58 282 0.0 0.0 0.00 0.00 0.00 79 1018.3
20260506142509 58 282 0.0 0.0 0.00 0.00 0.00 79 1018.3
20260506142010 57 282 0.0 0.0 0.00 0.00 0.00 80 1018.2
20260506141511 57 282 0.0 0.0 0.00 0.00 0.00 80 1018.2
20260506141009 57 282 0.0 0.0 0.00 0.00 0.00 80 1018.1
20260506140510 57 282 0.0 0.0 0.00 0.00 0.00 80 1018.0
20260506135508 57 282 0.0 0.0 0.00 0.00 0.00 81 1018.0
20260506135009 57 282 0.0 0.0 0.00 0.00 0.00 81 1017.9
20260506134010 56 282 0.0 0.0 0.00 0.00 0.00 81 1017.9
20260506133510 56 282 0.0 0.9 0.00 0.00 0.00 81 1017.8
20260506132009 56 282 0.0 0.0 0.00 0.00 0.00 81 1017.6
20260506131509 56 282 0.0 0.0 0.00 0.00 0.00 81 1017.6
20260506131009 56 282 0.0 0.0 0.00 0.00 0.00 81 1017.6
20260506130505 56 282 0.0 0.0 0.00 0.00 0.00 81 1017.6
20260506130008 56 282 0.0 0.0 0.00 0.00 0.00 81 1017.5
20260506125507 56 282 0.0 0.0 0.00 0.00 0.00 81 1017.5
20260506125009 56 282 0.0 0.0 0.00 0.00 0.00 81 1017.5
20260506124510 56 282 0.0 0.0 0.00 0.00 0.00 81 1017.5
20260506124007 56 282 0.0 0.0 0.00 0.00 0.00 80 1017.4
20260506122007 56 282 0.0 0.9 0.00 0.00 0.00 80 1017.4
20260506121505 56 282 0.0 0.9 0.00 0.00 0.00 80 1017.4
20260506121009 56 282 0.0 0.9 0.00 0.00 0.00 80 1017.4
20260506120506 56 282 0.0 0.9 0.00 0.00 0.00 80 1017.4
20260506120022 56 282 0.0 0.0 0.00 0.00 0.00 80 1017.4
20260506115510 56 282 0.0 0.9 0.00 0.00 0.00 80 1017.3
20260506115006 56 282 0.0 0.9 0.00 0.00 0.00 80 1017.3
20260506114006 56 282 0.0 0.9 0.00 0.00 0.00 80 1017.2
20260506113010 56 281 0.0 1.7 0.00 0.00 0.00 80 1017.1
20260506112508 56 281 0.0 0.9 0.00 0.00 0.00 80 1017.1
20260506112008 56 281 0.0 0.9 0.00 0.00 0.00 80 1017.0
20260506111509 56 281 0.0 1.7 0.00 0.00 0.00 80 1017.0
20260506111010 56 281 0.9 2.6 0.00 0.00 0.00 80 1016.9
20260506110508 56 248 0.9 2.6 0.00 0.00 0.00 80 1016.8
20260506105505 56 252 1.7 4.3 0.00 0.03 0.00 79 1016.7
20260506105007 56 236 1.7 5.2 0.00 0.03 0.00 79 1016.7
20260506104510 56 262 1.7 5.2 0.00 0.03 0.00 79 1016.8
20260506104005 57 276 1.7 5.2 0.00 0.03 0.00 79 1016.7
20260506103506 57 281 1.7 4.3 0.00 0.03 0.00 79 1016.7
20260506103009 57 280 2.6 5.2 0.00 0.03 0.00 79 1016.7
20260506102007 57 321 1.7 5.2 0.00 0.03 0.00 79 1016.6
20260506101506 57 249 1.7 4.3 0.00 0.03 0.00 79 1016.6
20260506101010 57 287 1.7 3.5 0.00 0.03 0.00 79 1016.6
20260506100010 57 262 1.7 4.3 0.00 0.03 0.00 79 1016.6
20260506095505 57 285 1.7 4.3 0.00 0.06 0.00 79 1016.6
20260506095012 57 343 1.7 3.5 0.00 0.06 0.00 79 1016.5
20260506094010 56 283 1.7 5.2 0.00 0.06 0.00 80 1016.5
20260506093507 56 271 0.9 4.3 0.00 0.06 0.00 80 1016.5
20260506093011 56 259 0.9 3.5 0.00 0.06 0.00 80 1016.5
20260506092505 56 297 0.9 3.5 0.00 0.06 0.00 80 1016.5
20260506092012 56 269 0.9 3.5 0.00 0.06 0.00 80 1016.4
20260506091509 56 296 0.0 1.7 0.00 0.06 0.00 81 1016.5
20260506091008 56 296 0.0 1.7 0.00 0.06 0.00 81 1016.5
20260506090021 56 295 0.9 2.6 0.00 0.06 0.00 80 1016.5
20260506085509 56 288 0.0 2.6 0.00 0.09 0.00 81 1016.6
20260506085010 56 349 0.0 1.7 0.00 0.09 0.00 81 1016.7
20260506084505 56 349 0.0 0.9 0.00 0.09 0.00 81 1016.6
20260506084006 56 349 0.0 0.9 0.00 0.09 0.00 81 1016.6
20260506083510 56 349 0.0 1.7 0.00 0.09 0.00 80 1016.6
20260506083007 56 349 0.0 1.7 0.00 0.09 0.00 81 1016.6
20260506082507 56 349 0.0 0.9 0.00 0.09 0.00 81 1016.7
20260506081505 56 349 0.0 1.7 0.00 0.09 0.00 81 1016.6
20260506080506 56 350 0.9 1.7 0.00 0.09 0.00 80 1016.5
20260506073506 56 255 1.7 5.2 0.00 0.10 0.00 80 1016.2
20260506073009 56 286 2.6 6.1 0.00 0.10 0.00 80 1016.2
20260506072009 55 262 2.6 7.8 0.00 0.10 0.00 82 1016.0
20260506071506 55 263 0.9 7.8 0.00 0.10 0.00 83 1016.1
20260506071008 55 265 0.0 1.7 0.00 0.10 0.00 83 1016.1
20260506070509 55 265 0.0 0.9 0.00 0.10 0.00 83 1016.1
20260506062506 56 264 0.9 2.6 0.00 0.13 0.10 82 1015.7
20260506061009 56 278 0.0 1.7 0.00 0.13 0.10 81 1015.7
20260506051008 58 253 0.9 1.7 0.00 0.13 0.10 77 1015.2
20260506050508 58 257 0.9 3.5 0.00 0.13 0.10 77 1015.0
20260506045009 59 267 0.9 1.7 0.00 0.13 0.10 76 1015.0
20260506044506 59 271 1.7 3.5 0.00 0.13 0.10 75 1014.9
20260506044013 60 278 2.6 5.2 0.00 0.13 0.10 75 1014.8
20260506043507 60 255 2.6 6.1 0.00 0.13 0.10 75 1014.8
20260506043011 60 287 2.6 6.1 0.00 0.13 0.10 75 1014.7
20260506042007 60 269 1.7 5.2 0.00 0.13 0.10 74 1014.6
20260506041508 60 293 1.7 5.2 0.00 0.13 0.10 74 1014.4
20260506041008 61 314 3.5 7.8 0.00 0.13 0.10 73 1014.4
20260506040506 61 285 4.3 7.8 0.00 0.13 0.10 73 1014.3
20260506035507 61 253 4.3 8.7 0.00 0.13 0.10 73 1014.3
20260506035010 61 281 4.3 8.7 0.00 0.13 0.10 73 1014.3
20260506034507 61 284 3.5 7.8 0.00 0.13 0.10 72 1014.3
20260506034011 61 239 3.5 7.8 0.00 0.13 0.10 72 1014.2
20260506033509 61 242 4.3 9.6 0.00 0.13 0.10 72 1014.1
20260506033009 61 274 5.2 10.4 0.00 0.13 0.10 72 1014.0
20260506032507 61 237 4.3 10.4 0.00 0.13 0.10 72 1013.9
20260506032010 61 274 5.2 8.7 0.00 0.13 0.10 72 1013.9
20260506031510 61 248 4.3 10.4 0.00 0.13 0.10 72 1013.8
20260506031009 61 251 4.3 7.8 0.00 0.13 0.10 72 1013.7
20260506030510 61 293 4.3 9.6 0.00 0.13 0.10 72 1013.8
20260506030024 61 263 4.3 9.6 0.00 0.13 0.10 72 1013.8
20260506025506 61 246 3.5 10.4 0.00 0.13 0.10 72 1013.8
20260506025011 62 285 3.5 10.4 0.00 0.13 0.10 72 1013.7
20260506024507 62 240 4.3 7.8 0.00 0.13 0.10 72 1013.6
20260506024009 62 254 4.3 8.7 0.00 0.13 0.10 72 1013.6
20260506023510 62 260 5.2 9.6 0.00 0.13 0.10 72 1013.6
20260506023010 62 259 5.2 9.6 0.00 0.13 0.10 72 1013.5
20260506022510 62 236 4.3 9.6 0.00 0.13 0.10 72 1013.5
20260506022012 62 271 4.3 9.6 0.00 0.13 0.10 72 1013.4
20260506021510 62 288 4.3 9.6 0.00 0.13 0.10 71 1013.3
20260506021010 63 210 3.5 9.6 0.00 0.13 0.10 71 1013.3
20260506020507 63 240 3.5 7.0 0.00 0.13 0.10 71 1013.3
20260506020023 63 236 3.5 7.8 0.00 0.13 0.10 71 1013.2
20260506015510 63 262 3.5 7.8 0.00 0.13 0.10 70 1013.2
20260506015008 63 297 2.6 7.0 0.00 0.13 0.10 70 1013.2
20260506014507 64 256 2.6 6.1 0.00 0.13 0.10 70 1013.1
20260506014012 64 247 2.6 6.1 0.00 0.13 0.10 70 1013.2
20260506013507 64 243 0.9 5.2 0.00 0.13 0.10 69 1013.2
20260506013011 64 212 0.9 2.6 0.00 0.13 0.10 69 1013.2
20260506012009 64 240 1.7 5.2 0.00 0.13 0.10 69 1013.1
20260506011506 64 121 2.6 6.1 0.00 0.13 0.10 69 1013.1
20260506011009 64 219 2.6 4.3 0.00 0.13 0.10 69 1013.0
20260506010507 64 153 1.7 4.3 0.00 0.13 0.10 69 1013.0
20260506010021 64 136 1.7 4.3 0.00 0.13 0.10 69 1013.1
20260506005509 64 218 2.6 5.2 0.00 0.13 0.10 69 1013.0
20260506005010 65 232 1.7 5.2 0.00 0.13 0.10 69 1013.0
20260506004510 65 153 2.6 5.2 0.00 0.13 0.10 69 1013.0
20260506004010 65 250 2.6 5.2 0.00 0.13 0.10 69 1013.0
20260506003505 65 229 1.7 5.2 0.00 0.13 0.10 70 1013.0
20260506003009 64 192 1.7 5.2 0.00 0.13 0.10 70 1013.0
20260506002512 64 144 2.6 5.2 0.00 0.13 0.10 70 1013.0
20260506002008 64 233 3.5 7.0 0.00 0.13 0.10 71 1012.9
20260506001507 64 228 2.6 7.0 0.00 0.13 0.10 71 1012.8
20260506001009 64 253 2.6 6.1 0.00 0.13 0.10 71 1012.9
20260506000510 64 248 3.5 6.1 0.00 0.13 0.10 71 1013.0
20260506000009 64 255 2.6 6.1 0.00 0.13 0.10 70 1013.0
20260505235506 64 249 0.9 5.2 0.00 0.13 0.10 69 1013.0
20260505235008 64 269 0.9 4.3 0.00 0.13 0.10 69 1012.9
20260505234510 64 220 1.7 4.3 0.00 0.13 0.10 70 1012.9
20260505234008 64 159 1.7 6.1 0.00 0.13 0.10 69 1012.9
20260505233511 65 304 0.9 6.1 0.00 0.13 0.10 69 1012.9
20260505233006 65 331 0.0 1.7 0.00 0.13 0.10 69 1012.9
20260505232011 65 288 0.9 3.5 0.00 0.13 0.10 69 1012.9
20260505231511 65 319 0.9 3.5 0.00 0.13 0.10 69 1012.9
20260505231007 64 345 0.9 2.6 0.00 0.13 0.10 69 1012.9
20260505230507 64 276 0.9 2.6 0.00 0.13 0.10 68 1013.0
20260505230006 64 243 0.9 2.6 0.00 0.13 0.10 69 1013.0
20260505225509 64 240 0.9 3.5 0.00 0.13 0.10 69 1013.1
20260505225010 64 286 1.7 4.3 0.00 0.13 0.10 69 1013.0
20260505224512 64 306 0.9 4.3 0.00 0.13 0.10 69 1013.1
20260505224011 64 265 0.9 4.3 0.00 0.13 0.10 69 1013.1
20260505223505 64 278 0.9 4.3 0.00 0.13 0.10 70 1013.1
20260505223012 64 260 0.9 1.7 0.00 0.13 0.10 70 1013.1